This is the latest recevied weather packets stored in our database for station/object GCEMA. If no packets are shown the sender has not sent any weather packets the latest 10 day(s).
| Time | Temp. | Humidity | Pressure | Rain* | Wind** | Luminosity | Snow |
|---|---|---|---|---|---|---|---|
| 1778184572 | 17.78° C | - | 1012.2 hPa | 0 mm | 0 m/s | - | - |
| 1778184210 | 16.67° C | - | 1012.3 hPa | 0 mm | 0 m/s | - | - |
| 1778184031 | 18.89° C | - | 1012.3 hPa | 0 mm | 0 m/s | - | - |
| 1778183851 | 18.33° C | - | 1012.4 hPa | 0 mm | 0 m/s | - | - |
| 1778183672 | 19.44° C | - | 1012.4 hPa | 0 mm | 0 m/s | - | - |
| 1778183310 | 17.22° C | - | 1012.6 hPa | 0 mm | 0 m/s | - | - |
| 1778183130 | 16.67° C | - | 1012.6 hPa | 0 mm | 0 m/s | - | - |
| 1778182951 | 16.11° C | - | 1012.6 hPa | 0 mm | 0 m/s | - | - |
| 1778182771 | 16.67° C | - | 1012.6 hPa | 0 mm | 0 m/s | - | - |
| 1778182409 | 16.11° C | - | 1012.7 hPa | 0 mm | 0 m/s | - | - |
| 1778182230 | 17.22° C | - | 1012.6 hPa | 0 mm | 0 m/s | - | - |
| 1778182050 | 17.78° C | - | 1012.6 hPa | 0 mm | 0 m/s | - | - |
| 1778181871 | 17.78° C | - | 1012.7 hPa | 0 mm | 0 m/s | - | - |
| 1778181691 | 16.67° C | - | 1012.7 hPa | 0 mm | 0 m/s | - | - |
| 1778181509 | 16.11° C | - | 1012.6 hPa | 0 mm | 0 m/s | - | - |
| 1778181329 | 16.11° C | - | 1012.6 hPa | 0 mm | 0 m/s | - | - |
| 1778181150 | 16.67° C | - | 1012.6 hPa | 0 mm | 0 m/s | - | - |
| 1778180970 | 17.22° C | - | 1012.7 hPa | 0 mm | 0 m/s | - | - |
| 1778180791 | 17.78° C | - | 1012.7 hPa | 0 mm | 0 m/s | - | - |
| 1778180249 | 16.11° C | - | 1012.9 hPa | 0 mm | 0 m/s | - | - |
| 1778180069 | 17.78° C | - | 1012.9 hPa | 0 mm | 0 m/s | - | - |
| 1778179707 | 16.11° C | - | 1012.9 hPa | 0 mm | 0 m/s | - | - |
| 1778179528 | 16.11° C | - | 1012.8 hPa | 0 mm | 0 m/s | - | - |
| 1778179348 | 17.22° C | - | 1012.9 hPa | 0 mm | 0 m/s | - | - |
| 1778179169 | 18.33° C | - | 1012.9 hPa | 0 mm | 0 m/s | - | - |
* Rain latest hour (hover to see other rain measurements)
** Current wind speed in m/s (hover to see current wind gust speed)